contact:dominique.lefevre@mio.osupytheas.fr, maurice.libes@osupytheas.fr, didier.mallarino@osupytheas.fr
Project:EMSO http://www.emso-fr.org/EMSO-France
Depth: 2436.0 m
Title:EMSO Ligure Ouest : Data MII capteur AQUADOPP
Date,Latitude,Longitude,X_East,Y_North,Z_Up,Amplitude_X,Amplitude_Y,Amplitude_Z,Batterie,SoundSpeed,Heading,Pitch,Roll,Pressure,TIS,Speed,Direction
, degrees North, degrees East, m.s-1, m.s-1,m.s-1, 1, 1, 1, Volt, m.s-1, degree, degree, degree, dbar, degree_C, m.s-1, degree
2023-07-16T00:04:03,42.805,6.029,-0.003,0.016,-0.008,102.0,102.0,101.0,13.4,1505.2,354.2,-0.8,1.8,2471.452,13.29,0.016,349.4
2023-07-16T00:07:03,42.805,6.029,-0.017,0.008,0.006,102.0,103.0,103.0,13.4,1505.2,343.4,-0.8,1.8,2471.421,13.29,0.018,295.2
2023-07-16T00:10:03,42.805,6.029,-0.047,0.024,-0.048,102.0,103.0,101.0,13.3,1505.2,343.1,-0.8,1.8,2471.438,13.29,0.052,297.0
2023-07-16T00:13:03,42.805,6.029,-0.02,0.005,-0.053,106.0,101.0,103.0,13.4,1505.2,335.5,-0.8,1.8,2471.386,13.29,0.02,284.0
2023-07-16T00:16:03,42.805,6.029,-0.014,0.008,-0.02,102.0,103.0,101.0,13.3,1505.2,328.8,-0.8,1.8,2471.396,13.29,0.016,299.7
2023-07-16T00:19:03,42.805,6.029,-0.05,0.003,-0.019,102.0,103.0,101.0,13.4,1505.2,323.6,-0.7,1.8,2471.404,13.29,0.05,273.4
2023-07-16T00:22:03,42.805,6.029,-0.003,0.032,0.0,102.0,102.0,101.0,13.3,1505.2,350.3,-0.8,1.8,2471.45,13.29,0.032,354.6
2023-07-16T00:25:03,42.805,6.029,-0.014,0.015,-0.034,102.0,101.0,102.0,13.4,1505.2,345.1,-0.8,1.8,2471.392,13.29,0.02,317.0
2023-07-16T00:28:03,42.805,6.029,-0.006,0.019,0.0,103.0,102.0,101.0,13.4,1505.2,332.9,-0.8,1.8,2471.405,13.29,0.019,342.5
2023-07-16T00:31:03,42.805,6.029,-0.005,0.019,-0.012,102.0,103.0,101.0,13.4,1505.2,335.0,-0.8,1.8,2471.399,13.29,0.019,345.3
2023-07-16T00:34:03,42.805,6.029,-0.016,0.025,-0.036,103.0,102.0,101.0,13.3,1505.2,328.8,-0.8,1.8,2471.39,13.29,0.029,327.4
2023-07-16T00:37:03,42.805,6.029,-0.022,0.026,-0.001,103.0,103.0,101.0,13.4,1505.2,335.2,-0.7,1.8,2471.406,13.29,0.034,319.8
2023-07-16T00:40:03,42.805,6.029,-0.007,0.017,-0.022,103.0,102.0,102.0,13.4,1505.2,331.2,-0.8,1.8,2471.365,13.29,0.018,337.6
2023-07-16T00:43:03,42.805,6.029,0.0,0.021,-0.013,102.0,102.0,102.0,13.4,1505.2,341.9,-0.8,1.8,2471.373,13.29,0.021,0.0
2023-07-16T00:46:03,42.805,6.029,-0.038,0.0,-0.051,100.0,101.0,102.0,13.4,1505.2,322.3,-0.7,1.8,2471.35,13.29,0.038,270.0
2023-07-16T00:49:03,42.805,6.029,-0.004,0.008,-0.014,101.0,102.0,101.0,13.4,1505.2,322.5,-0.8,1.8,2471.356,13.29,0.008,333.4
2023-07-16T00:52:03,42.805,6.029,-0.013,0.018,-0.011,103.0,101.0,101.0,13.3,1505.2,329.8,-0.7,1.8,2471.364,13.29,0.022,324.2
2023-07-16T00:55:03,42.805,6.029,0.004,0.014,-0.015,102.0,102.0,101.0,13.4,1505.2,347.0,-0.7,1.8,2471.365,13.29,0.014,15.9
2023-07-16T00:58:03,42.805,6.029,-0.009,0.028,-0.027,103.0,102.0,101.0,13.3,1505.2,347.1,-0.8,1.9,2471.36,13.29,0.029,342.2
2023-07-16T01:04:03,42.805,6.029,-0.01,0.007,-0.001,104.0,102.0,103.0,13.4,1505.2,330.7,-0.8,1.8,2471.39,13.29,0.012,305.0
2023-07-16T01:07:03,42.805,6.029,-0.003,0.013,-0.008,102.0,102.0,101.0,13.3,1505.2,342.2,-0.8,1.8,2471.424,13.29,0.013,347.0
2023-07-16T01:10:03,42.805,6.029,-0.016,0.031,0.008,102.0,103.0,101.0,13.4,1505.2,326.0,-0.8,1.8,2471.386,13.29,0.034,332.7
2023-07-16T01:13:03,42.805,6.029,-0.045,0.021,-0.044,107.0,102.0,101.0,13.3,1505.2,332.3,-0.8,1.8,2471.415,13.29,0.049,295.0
2023-07-16T01:16:03,42.805,6.029,-0.002,0.035,0.024,101.0,102.0,101.0,13.4,1505.2,343.0,-0.8,1.8,2471.424,13.29,0.035,356.7
2023-07-16T01:19:03,42.805,6.029,-0.002,0.015,-0.021,103.0,102.0,101.0,13.4,1505.2,331.5,-0.8,1.8,2471.404,13.29,0.015,352.4
2023-07-16T01:22:03,42.805,6.029,-0.013,0.026,-0.007,103.0,102.0,101.0,13.4,1505.2,354.2,-0.8,1.8,2471.366,13.29,0.029,333.4
2023-07-16T01:25:03,42.805,6.029,-0.019,-0.012,-0.045,100.0,103.0,101.0,13.4,1505.2,345.9,-0.8,1.8,2471.401,13.29,0.022,237.7
2023-07-16T01:28:03,42.805,6.029,0.002,0.012,-0.026,103.0,103.0,101.0,13.4,1505.2,338.7,-0.8,1.8,2471.428,13.3,0.012,9.5
2023-07-16T01:31:03,42.805,6.029,-0.004,0.005,-0.026,102.0,102.0,101.0,13.4,1505.2,339.7,-0.8,1.8,2471.398,13.3,0.006,321.3
2023-07-16T01:34:03,42.805,6.029,-0.009,0.028,-0.01,101.0,103.0,101.0,13.4,1505.2,349.9,-0.7,1.8,2471.358,13.3,0.029,342.2
2023-07-16T01:37:03,42.805,6.029,0.014,0.003,-0.033,101.0,103.0,101.0,13.4,1505.2,342.5,-0.8,1.8,2471.409,13.3,0.014,77.9
2023-07-16T01:40:03,42.805,6.029,-0.001,0.022,-0.029,102.0,103.0,101.0,13.4,1505.2,340.8,-0.8,1.8,2471.356,13.3,0.022,357.4
2023-07-16T01:43:03,42.805,6.029,-0.001,0.015,-0.013,102.0,103.0,101.0,13.4,1505.2,339.3,-0.8,1.8,2471.373,13.3,0.015,356.2
2023-07-16T01:46:03,42.805,6.029,0.009,0.007,0.011,102.0,103.0,101.0,13.4,1505.2,336.5,-0.8,1.8,2471.343,13.3,0.011,52.1
2023-07-16T01:49:03,42.805,6.029,-0.004,0.024,-0.013,101.0,101.0,102.0,13.3,1505.2,341.9,-0.8,1.8,2471.349,13.3,0.024,350.5
2023-07-16T01:52:03,42.805,6.029,0.007,0.001,-0.008,103.0,102.0,101.0,13.4,1505.2,339.3,-0.8,1.8,2471.335,13.3,0.007,81.9
2023-07-16T01:55:03,42.805,6.029,0.017,0.004,-0.025,103.0,105.0,101.0,13.3,1505.2,333.4,-0.7,1.8,2471.367,13.3,0.017,76.8
2023-07-16T01:58:03,42.805,6.029,-0.009,0.021,0.003,103.0,102.0,101.0,13.3,1505.2,320.5,-0.7,1.8,2471.358,13.3,0.022,336.8
2023-07-16T02:04:03,42.805,6.029,-0.01,0.024,-0.043,103.0,102.0,102.0,13.4,1505.2,349.9,-0.8,1.8,2471.431,13.29,0.026,337.4
2023-07-16T02:07:03,42.805,6.029,0.008,-0.007,-0.057,104.0,103.0,101.0,13.4,1505.2,321.3,-0.8,1.8,2471.394,13.29,0.01,131.2
2023-07-16T02:10:03,42.805,6.029,-0.008,0.016,-0.013,103.0,102.0,101.0,13.4,1505.2,344.0,-0.8,1.8,2471.433,13.29,0.017,333.4
2023-07-16T02:13:03,42.805,6.029,0.001,0.014,-0.032,102.0,102.0,102.0,13.4,1505.2,353.4,-0.8,1.8,2471.357,13.29,0.014,4.1
2023-07-16T02:16:03,42.805,6.029,-0.012,0.0,-0.007,102.0,102.0,101.0,13.4,1505.2,325.3,-0.8,1.8,2471.38,13.29,0.012,270.0
2023-07-16T02:19:03,42.805,6.029,-0.012,0.036,-0.03,102.0,102.0,101.0,13.4,1505.2,343.1,-0.8,1.8,2471.444,13.29,0.037,341.6
2023-07-16T02:22:03,42.805,6.029,-0.022,0.012,-0.031,101.0,102.0,101.0,13.3,1505.2,337.0,-0.8,1.8,2471.39,13.29,0.025,298.6
2023-07-16T02:25:03,42.805,6.029,0.0,0.008,-0.04,103.0,101.0,101.0,13.4,1505.2,341.1,-0.7,1.8,2471.355,13.29,0.008,0.0
2023-07-16T02:28:03,42.805,6.029,0.002,0.013,0.0,103.0,103.0,101.0,13.3,1505.2,337.2,-0.8,1.8,2471.384,13.29,0.013,8.7
2023-07-16T02:31:03,42.805,6.029,-0.015,0.015,-0.041,104.0,101.0,104.0,13.4,1505.2,335.9,-0.7,1.8,2471.34,13.29,0.021,315.0
2023-07-16T02:34:03,42.805,6.029,0.023,0.017,-0.014,101.0,103.0,102.0,13.4,1505.2,340.4,-0.7,1.8,2471.431,13.3,0.028,53.5
2023-07-16T02:37:03,42.805,6.029,0.009,0.036,-0.016,103.0,101.0,102.0,13.4,1505.2,332.5,-0.7,1.8,2471.389,13.29,0.037,14.0
2023-07-16T02:40:03,42.805,6.029,0.015,0.016,0.011,102.0,103.0,101.0,13.4,1505.2,339.5,-0.8,1.8,2471.418,13.29,0.021,43.1
2023-07-16T02:43:03,42.805,6.029,0.003,0.003,-0.018,101.0,103.0,102.0,13.4,1505.2,354.4,-0.8,1.8,2471.397,13.29,0.004,45.0
2023-07-16T02:46:03,42.805,6.029,0.001,0.005,-0.003,101.0,102.0,103.0,13.4,1505.2,338.5,-0.8,1.8,2471.383,13.29,0.005,11.3
2023-07-16T02:49:03,42.805,6.029,0.006,-0.007,-0.046,102.0,103.0,102.0,13.4,1505.2,329.8,-0.8,1.8,2471.37,13.29,0.009,139.4
2023-07-16T02:52:03,42.805,6.029,0.006,-0.02,-0.04,101.0,101.0,102.0,13.4,1505.2,340.5,-0.7,1.8,2471.358,13.29,0.02,163.3
2023-07-16T02:55:03,42.805,6.029,0.0,0.032,0.017,102.0,104.0,102.0,13.4,1505.2,324.7,-0.7,1.8,2471.401,13.29,0.032,0.0
2023-07-16T02:58:03,42.805,6.029,-0.005,0.017,-0.016,103.0,103.0,102.0,13.3,1505.2,338.3,-0.8,1.8,2471.339,13.29,0.017,343.6
2023-07-16T03:04:03,42.805,6.029,0.011,0.011,-0.016,103.0,103.0,101.0,13.4,1505.2,325.2,-0.8,1.8,2471.381,13.29,0.015,45.0
2023-07-16T03:07:03,42.805,6.029,0.022,-0.001,-0.008,103.0,103.0,101.0,13.3,1505.2,332.1,-0.8,1.8,2471.442,13.29,0.022,92.6
2023-07-16T03:10:03,42.805,6.029,0.005,0.017,-0.02,104.0,102.0,102.0,13.3,1505.2,353.0,-0.8,1.8,2471.39,13.29,0.017,16.4
2023-07-16T03:13:03,42.805,6.029,-0.007,0.018,-0.042,103.0,103.0,101.0,13.3,1505.2,352.0,-0.7,1.8,2471.384,13.29,0.019,338.8
2023-07-16T03:16:03,42.805,6.029,-0.004,0.01,-0.039,103.0,102.0,101.0,13.4,1505.2,329.6,-0.8,1.8,2471.4,13.29,0.01,338.2
2023-07-16T03:19:03,42.805,6.029,0.004,-0.001,-0.015,104.0,105.0,101.0,13.4,1505.2,341.5,-0.8,1.8,2471.396,13.29,0.004,104.0
2023-07-16T03:22:03,42.805,6.029,-0.008,0.009,-0.016,103.0,102.0,102.0,13.3,1505.2,331.1,-0.8,1.8,2471.411,13.29,0.012,318.4
2023-07-16T03:25:03,42.805,6.029,-0.01,0.022,-0.016,103.0,103.0,101.0,13.4,1505.2,339.3,-0.7,1.8,2471.441,13.29,0.024,335.6
2023-07-16T03:28:03,42.805,6.029,-0.008,0.0,-0.031,102.0,103.0,102.0,13.3,1505.2,326.5,-0.8,1.8,2471.395,13.29,0.008,270.0
2023-07-16T03:31:03,42.805,6.029,0.01,0.012,-0.017,102.0,102.0,103.0,13.4,1505.2,330.7,-0.8,1.8,2471.379,13.3,0.015,39.8
2023-07-16T03:34:03,42.805,6.029,0.013,0.01,-0.035,103.0,104.0,101.0,13.4,1505.2,340.4,-0.8,1.8,2471.399,13.3,0.016,52.4
2023-07-16T03:37:03,42.805,6.029,0.013,0.019,-0.031,102.0,105.0,100.0,13.4,1505.2,332.9,-0.8,1.8,2471.376,13.3,0.023,34.4
2023-07-16T03:40:03,42.805,6.029,0.006,0.012,-0.014,102.0,103.0,101.0,13.4,1505.2,341.2,-0.8,1.8,2471.363,13.3,0.013,26.6
2023-07-16T03:43:03,42.805,6.029,0.009,0.0,-0.022,102.0,103.0,101.0,13.3,1505.2,341.2,-0.8,1.8,2471.368,13.3,0.009,90.0
2023-07-16T03:46:03,42.805,6.029,0.006,0.023,0.0,103.0,101.0,101.0,13.4,1505.2,349.5,-0.8,1.8,2471.395,13.3,0.023,14.6
2023-07-16T03:49:03,42.805,6.029,0.019,-0.02,-0.031,101.0,103.0,102.0,13.3,1505.2,333.9,-0.8,1.8,2471.429,13.3,0.027,136.5
2023-07-16T03:52:03,42.805,6.029,0.009,0.005,-0.026,104.0,102.0,102.0,13.4,1505.2,330.9,-0.8,1.8,2471.414,13.3,0.01,60.9
2023-07-16T03:55:03,42.805,6.029,0.009,0.022,-0.006,102.0,104.0,102.0,13.4,1505.2,329.7,-0.7,1.8,2471.405,13.3,0.023,22.2
2023-07-16T03:58:03,42.805,6.029,-0.03,0.031,-0.083,101.0,104.0,101.0,13.4,1505.2,348.9,-0.8,1.8,2471.421,13.3,0.043,315.9
2023-07-16T04:04:03,42.805,6.029,-0.001,0.011,-0.035,102.0,103.0,100.0,13.3,1505.2,331.7,-0.8,1.8,2471.459,13.29,0.011,354.8
2023-07-16T04:07:03,42.805,6.029,0.018,0.006,-0.016,104.0,101.0,100.0,13.4,1505.2,325.2,-0.8,1.8,2471.425,13.29,0.018,71.6
2023-07-16T04:10:03,42.805,6.029,0.013,0.004,-0.016,101.0,103.0,101.0,13.3,1505.2,334.3,-0.8,1.8,2471.457,13.29,0.013,72.9
2023-07-16T04:13:03,42.805,6.029,-0.005,0.041,-0.009,103.0,103.0,102.0,13.3,1505.2,348.9,-0.8,1.8,2471.436,13.29,0.041,353.0
2023-07-16T04:16:03,42.805,6.029,0.027,-0.009,-0.009,105.0,102.0,101.0,13.4,1505.2,349.1,-0.8,1.8,2471.439,13.3,0.028,108.4
2023-07-16T04:19:03,42.805,6.029,-0.017,0.019,-0.018,102.0,103.0,101.0,13.3,1505.2,321.6,-0.7,1.8,2471.434,13.3,0.025,318.2
2023-07-16T04:22:03,42.805,6.029,0.011,0.006,0.003,103.0,104.0,102.0,13.4,1505.2,343.4,-0.8,1.8,2471.486,13.3,0.012,61.4
2023-07-16T04:25:03,42.805,6.029,0.002,0.014,0.0,103.0,101.0,102.0,13.3,1505.2,336.8,-0.8,1.8,2471.419,13.3,0.014,8.1
2023-07-16T04:28:03,42.805,6.029,0.0,0.013,-0.011,102.0,102.0,102.0,13.3,1505.2,321.6,-0.8,1.8,2471.454,13.3,0.013,0.0
2023-07-16T04:31:03,42.805,6.029,0.006,0.022,0.0,102.0,102.0,101.0,13.4,1505.2,341.5,-0.8,1.8,2471.446,13.3,0.022,15.3
2023-07-16T04:34:03,42.805,6.029,0.011,0.011,-0.023,103.0,103.0,101.0,13.4,1505.2,324.1,-0.8,1.8,2471.425,13.3,0.015,45.0
2023-07-16T04:37:03,42.805,6.029,0.0,0.006,-0.004,102.0,104.0,102.0,13.4,1505.2,336.6,-0.8,1.8,2471.45,13.3,0.006,0.0
2023-07-16T04:40:03,42.805,6.029,0.002,0.014,-0.01,102.0,103.0,100.0,13.4,1505.2,341.5,-0.8,1.8,2471.439,13.3,0.014,8.1
2023-07-16T04:43:03,42.805,6.029,0.024,0.006,-0.024,103.0,101.0,103.0,13.4,1505.2,325.5,-0.8,1.8,2471.443,13.3,0.024,76.0
2023-07-16T04:46:03,42.805,6.029,0.009,0.017,-0.016,102.0,102.0,100.0,13.4,1505.2,324.1,-0.8,1.8,2471.445,13.3,0.019,27.9
2023-07-16T04:49:03,42.805,6.029,0.007,0.01,-0.021,103.0,102.0,101.0,13.4,1505.2,345.9,-0.8,1.9,2471.401,13.3,0.012,35.0
2023-07-16T04:52:03,42.805,6.029,0.026,0.007,-0.002,103.0,107.0,101.0,13.4,1505.2,326.0,-0.8,1.8,2471.456,13.3,0.026,74.9
2023-07-16T04:55:03,42.805,6.029,0.007,0.011,-0.026,102.0,103.0,101.0,13.4,1505.2,332.5,-0.7,1.8,2471.42,13.3,0.013,32.5
2023-07-16T04:58:03,42.805,6.029,0.019,-0.011,-0.028,103.0,101.0,104.0,13.4,1505.2,332.5,-0.8,1.8,2471.433,13.3,0.021,120.1
2023-07-16T05:04:03,42.805,6.029,0.011,-0.001,-0.017,101.0,103.0,101.0,13.3,1505.2,351.2,-0.8,1.8,2471.495,13.3,0.011,95.2
2023-07-16T05:07:03,42.805,6.029,-0.002,0.017,-0.017,102.0,105.0,102.0,13.3,1505.2,324.2,-0.8,1.8,2471.493,13.3,0.017,353.3
2023-07-16T05:10:03,42.805,6.029,0.018,0.003,0.003,101.0,103.0,102.0,13.4,1505.2,346.2,-0.7,1.8,2471.479,13.3,0.018,80.5
2023-07-16T05:13:03,42.805,6.029,-0.026,0.023,-0.024,105.0,104.0,101.0,13.3,1505.2,334.2,-0.8,1.8,2471.486,13.3,0.034,311.5
2023-07-16T05:16:03,42.805,6.029,0.011,-0.007,-0.026,102.0,104.0,101.0,13.4,1505.2,344.8,-0.8,1.8,2471.478,13.3,0.013,122.5
2023-07-16T05:19:03,42.805,6.029,0.0,0.0,-0.025,102.0,102.0,102.0,13.3,1505.2,332.9,-0.8,1.8,2471.468,13.3,0.0,0.0
2023-07-16T05:22:03,42.805,6.029,0.017,0.012,-0.017,102.0,104.0,102.0,13.3,1505.2,337.5,-0.7,1.8,2471.449,13.3,0.02,54.8
2023-07-16T05:25:03,42.805,6.029,0.007,-0.015,-0.019,103.0,102.0,100.0,13.4,1505.2,333.4,-0.7,1.8,2471.43,13.3,0.016,155.0
2023-07-16T05:28:03,42.805,6.029,0.005,-0.008,-0.014,103.0,104.0,101.0,13.4,1505.2,348.6,-0.8,1.8,2471.455,13.29,0.009,148.0
2023-07-16T05:31:03,42.805,6.029,-0.011,-0.006,-0.036,103.0,104.0,101.0,13.4,1505.2,321.9,-0.7,1.8,2471.466,13.29,0.012,241.4
2023-07-16T05:34:03,42.805,6.029,-0.006,0.01,-0.015,101.0,102.0,102.0,13.3,1505.2,322.1,-0.7,1.8,2471.462,13.29,0.011,329.0
2023-07-16T05:37:03,42.805,6.029,0.013,0.006,-0.013,103.0,104.0,101.0,13.4,1505.2,331.6,-0.7,1.8,2471.44,13.29,0.014,65.2
2023-07-16T05:40:03,42.805,6.029,0.009,-0.011,-0.034,103.0,102.0,102.0,13.3,1505.2,347.1,-0.8,1.8,2471.459,13.29,0.014,140.7
2023-07-16T05:43:03,42.805,6.029,0.0,-0.005,-0.02,103.0,102.0,102.0,13.3,1505.2,329.0,-0.8,1.8,2471.429,13.29,0.005,180.0
2023-07-16T05:46:03,42.805,6.029,0.0,0.009,-0.014,101.0,102.0,100.0,13.3,1505.2,322.1,-0.7,1.8,2471.476,13.29,0.009,0.0
2023-07-16T05:49:03,42.805,6.029,0.003,0.011,-0.022,102.0,101.0,101.0,13.3,1505.2,337.2,-0.8,1.8,2471.49,13.29,0.011,15.3
2023-07-16T05:52:03,42.805,6.029,0.017,0.003,0.012,102.0,101.0,101.0,13.4,1505.2,353.2,-0.8,1.8,2471.45,13.29,0.017,80.0
2023-07-16T05:55:03,42.805,6.029,-0.002,0.012,0.001,102.0,101.0,101.0,13.4,1505.2,323.4,-0.7,1.8,2471.461,13.29,0.012,350.5
2023-07-16T05:58:03,42.805,6.029,0.022,0.005,-0.016,101.0,102.0,101.0,13.4,1505.2,321.1,-0.8,1.8,2471.459,13.29,0.022,77.2
2023-07-16T06:04:03,42.805,6.029,-0.002,-0.005,-0.028,102.0,103.0,102.0,13.4,1505.2,329.2,-0.8,1.8,2471.52,13.29,0.005,201.8
2023-07-16T06:07:03,42.805,6.029,0.0,-0.007,-0.033,105.0,102.0,101.0,13.4,1505.2,336.3,-0.8,1.8,2471.503,13.29,0.007,180.0
2023-07-16T06:10:03,42.805,6.029,-0.014,0.006,-0.029,103.0,101.0,101.0,13.4,1505.2,333.4,-0.7,1.8,2471.473,13.29,0.015,293.2
2023-07-16T06:13:03,42.805,6.029,0.011,0.009,0.006,104.0,100.0,101.0,13.4,1505.2,353.2,-0.8,1.8,2471.47,13.29,0.014,50.7
2023-07-16T06:16:03,42.805,6.029,-0.01,0.004,-0.004,102.0,101.0,101.0,13.4,1505.2,326.0,-0.8,1.8,2471.442,13.29,0.01,291.8
2023-07-16T06:19:03,42.805,6.029,0.013,0.04,-0.001,101.0,100.0,101.0,13.4,1505.2,344.3,-0.8,1.8,2471.46,13.29,0.042,18.0
2023-07-16T06:22:03,42.805,6.029,0.022,0.008,-0.002,103.0,102.0,100.0,13.4,1505.2,333.4,-0.7,1.8,2471.474,13.29,0.023,70.0
2023-07-16T06:25:03,42.805,6.029,0.002,0.008,-0.03,101.0,101.0,101.0,13.3,1505.2,343.4,-0.7,1.8,2471.464,13.29,0.008,14.0
2023-07-16T06:28:03,42.805,6.029,-0.011,0.01,-0.029,102.0,101.0,100.0,13.3,1505.2,321.6,-0.7,1.8,2471.462,13.29,0.014,312.3
2023-07-16T06:31:03,42.805,6.029,-0.004,0.031,0.022,100.0,102.0,101.0,13.3,1505.2,327.7,-0.8,1.8,2471.435,13.29,0.031,352.7
2023-07-16T06:34:03,42.805,6.029,0.006,0.011,-0.021,101.0,102.0,101.0,13.4,1505.2,336.8,-0.8,1.8,2471.434,13.29,0.012,28.6
2023-07-16T06:37:03,42.805,6.029,0.014,0.03,-0.011,101.0,101.0,100.0,13.3,1505.2,343.3,-0.7,1.8,2471.437,13.29,0.033,25.0
2023-07-16T06:40:03,42.805,6.029,0.028,-0.035,-0.031,101.0,102.0,101.0,13.3,1505.2,338.8,-0.8,1.8,2471.475,13.29,0.044,141.3
2023-07-16T06:43:03,42.805,6.029,0.009,0.004,-0.004,101.0,101.0,100.0,13.4,1505.2,335.1,-0.8,1.8,2471.486,13.29,0.009,66.0
2023-07-16T06:46:03,42.805,6.029,0.012,-0.002,-0.021,102.0,101.0,100.0,13.3,1505.2,332.4,-0.8,1.8,2471.46,13.29,0.012,99.5
2023-07-16T06:49:03,42.805,6.029,-0.002,0.005,-0.037,102.0,101.0,101.0,13.4,1505.2,329.3,-0.7,1.8,2471.436,13.29,0.005,338.2
2023-07-16T06:52:03,42.805,6.029,0.014,-0.015,-0.056,102.0,101.0,101.0,13.3,1505.2,331.6,-0.8,1.8,2471.449,13.29,0.02,137.0
2023-07-16T06:55:03,42.805,6.029,-0.007,-0.009,-0.057,103.0,103.0,101.0,13.4,1505.2,331.1,-0.8,1.8,2471.451,13.29,0.011,217.9
2023-07-16T06:58:03,42.805,6.029,-0.01,0.011,-0.05,102.0,100.0,101.0,13.3,1505.2,343.5,-0.7,1.8,2471.426,13.29,0.014,317.7
2023-07-16T07:04:03,42.805,6.029,-0.01,0.003,-0.059,102.0,103.0,101.0,13.4,1505.2,321.6,-0.8,1.8,2471.501,13.29,0.01,286.7
2023-07-16T07:07:03,42.805,6.029,0.004,0.018,-0.001,103.0,102.0,101.0,13.4,1505.2,330.2,-0.8,1.8,2471.484,13.29,0.018,12.5
2023-07-16T07:10:03,42.805,6.029,0.029,-0.001,-0.017,101.0,101.0,101.0,13.4,1505.2,349.1,-0.8,1.8,2471.524,13.29,0.029,92.0
2023-07-16T07:13:03,42.805,6.029,-0.006,-0.004,-0.055,102.0,102.0,101.0,13.4,1505.2,331.0,-0.8,1.8,2471.472,13.29,0.007,236.3
2023-07-16T07:16:03,42.805,6.029,0.014,-0.009,-0.032,101.0,101.0,101.0,13.4,1505.2,343.0,-0.8,1.8,2471.476,13.29,0.016,122.7
2023-07-16T07:19:03,42.805,6.029,0.029,-0.008,-0.006,101.0,102.0,100.0,13.4,1505.2,347.4,-0.8,1.8,2471.443,13.29,0.03,105.4
2023-07-16T07:22:03,42.805,6.029,0.022,-0.016,-0.061,102.0,101.0,100.0,13.3,1505.2,322.9,-0.8,1.8,2471.453,13.29,0.027,126.0
2023-07-16T07:25:03,42.805,6.029,0.019,0.019,-0.035,101.0,102.0,101.0,13.4,1505.2,327.5,-0.7,1.8,2471.428,13.29,0.026,45.0
2023-07-16T07:28:03,42.805,6.029,0.0,-0.017,-0.05,101.0,103.0,99.0,13.4,1505.2,344.7,-0.8,1.8,2471.441,13.29,0.017,180.0
2023-07-16T07:31:03,42.805,6.029,-0.011,0.013,-0.041,102.0,101.0,101.0,13.3,1505.2,322.7,-0.8,1.8,2471.464,13.29,0.017,319.8
2023-07-16T07:34:03,42.805,6.029,0.002,-0.004,-0.023,102.0,103.0,102.0,13.4,1505.2,339.5,-0.8,1.8,2471.447,13.29,0.004,153.4
2023-07-16T07:37:03,42.805,6.029,0.0,-0.007,-0.057,101.0,101.0,101.0,13.3,1505.2,352.8,-0.8,1.8,2471.47,13.29,0.007,180.0
2023-07-16T07:40:03,42.805,6.029,0.005,-0.008,-0.022,102.0,102.0,101.0,13.4,1505.2,321.0,-0.8,1.8,2471.466,13.29,0.009,148.0
2023-07-16T07:43:03,42.805,6.029,-0.022,-0.002,-0.042,101.0,102.0,101.0,13.4,1505.2,328.8,-0.8,1.8,2471.426,13.29,0.022,264.8
2023-07-16T07:46:03,42.805,6.029,0.033,-0.01,-0.053,101.0,103.0,101.0,13.4,1505.2,328.5,-0.8,1.8,2471.468,13.29,0.034,106.9
2023-07-16T07:49:03,42.805,6.029,0.011,-0.014,-0.05,101.0,102.0,101.0,13.4,1505.2,341.5,-0.7,1.8,2471.397,13.29,0.017,141.8
2023-07-16T07:52:03,42.805,6.029,-0.002,-0.023,-0.031,103.0,102.0,101.0,13.3,1505.2,328.4,-0.7,1.8,2471.416,13.29,0.023,185.0
2023-07-16T07:55:03,42.805,6.029,0.016,-0.005,-0.045,101.0,101.0,103.0,13.4,1505.2,330.2,-0.8,1.8,2471.456,13.29,0.016,107.4
2023-07-16T07:58:03,42.805,6.029,0.013,0.003,-0.008,102.0,102.0,102.0,13.3,1505.2,329.3,-0.7,1.8,2471.428,13.29,0.013,77.0
2023-07-16T08:04:03,42.805,6.029,0.011,-0.006,-0.047,102.0,102.0,101.0,13.4,1505.2,347.7,-0.8,1.8,2471.441,13.29,0.012,118.6
2023-07-16T08:07:03,42.805,6.029,0.006,-0.016,-0.023,102.0,101.0,102.0,13.3,1505.2,337.4,-0.7,1.8,2471.476,13.29,0.017,159.4
2023-07-16T08:10:03,42.805,6.029,0.003,-0.007,-0.036,100.0,102.0,101.0,13.4,1505.2,333.8,-0.8,1.8,2471.491,13.29,0.007,156.8
2023-07-16T08:13:03,42.805,6.029,-0.01,0.002,-0.026,102.0,103.0,101.0,13.4,1505.2,347.4,-0.8,1.8,2471.431,13.29,0.01,281.3
2023-07-16T08:16:03,42.805,6.029,0.016,-0.006,-0.028,101.0,102.0,100.0,13.3,1505.2,329.4,-0.7,1.8,2471.465,13.29,0.017,110.6
2023-07-16T08:19:03,42.805,6.029,0.005,-0.001,-0.037,100.0,105.0,102.0,13.4,1505.2,333.8,-0.8,1.8,2471.436,13.29,0.005,101.3
2023-07-16T08:22:03,42.805,6.029,-0.002,-0.023,-0.029,104.0,102.0,100.0,13.4,1505.2,350.1,-0.7,1.8,2471.401,13.29,0.023,185.0
2023-07-16T08:25:03,42.805,6.029,0.0,0.014,0.004,103.0,103.0,100.0,13.4,1505.2,348.6,-0.8,1.8,2471.444,13.29,0.014,0.0
2023-07-16T08:28:03,42.805,6.029,0.008,0.005,-0.018,102.0,103.0,102.0,13.4,1505.2,347.1,-0.8,1.8,2471.416,13.29,0.009,58.0
2023-07-16T08:31:03,42.805,6.029,-0.008,-0.017,-0.038,101.0,102.0,102.0,13.4,1505.2,324.8,-0.8,1.8,2471.392,13.29,0.018,205.2
2023-07-16T08:34:03,42.805,6.029,-0.01,0.018,-0.026,104.0,102.0,100.0,13.3,1505.2,341.2,-0.8,1.8,2471.406,13.29,0.02,330.9
2023-07-16T08:37:03,42.805,6.029,-0.008,-0.025,-0.037,103.0,103.0,101.0,13.4,1505.2,344.4,-0.8,1.8,2471.414,13.29,0.026,197.7
2023-07-16T08:40:03,42.805,6.029,0.002,-0.002,-0.041,104.0,103.0,101.0,13.4,1505.2,324.0,-0.8,1.8,2471.37,13.29,0.002,135.0
2023-07-16T08:43:03,42.805,6.029,0.02,-0.006,-0.024,103.0,103.0,101.0,13.3,1505.2,340.7,-0.8,1.8,2471.403,13.29,0.02,106.7
2023-07-16T08:46:03,42.805,6.029,-0.015,-0.015,-0.046,101.0,103.0,102.0,13.4,1505.2,341.2,-0.8,1.8,2471.439,13.29,0.021,225.0
2023-07-16T08:49:03,42.805,6.029,0.004,0.003,-0.021,101.0,103.0,102.0,13.4,1505.2,327.1,-0.7,1.8,2471.408,13.29,0.005,53.1
2023-07-16T08:52:03,42.805,6.029,0.009,0.004,-0.025,103.0,102.0,101.0,13.3,1505.2,353.0,-0.8,1.8,2471.386,13.29,0.009,66.0
2023-07-16T08:55:03,42.805,6.029,-0.008,0.013,-0.013,103.0,101.0,103.0,13.4,1505.2,328.1,-0.7,1.8,2471.386,13.29,0.015,328.4
2023-07-16T08:58:03,42.805,6.029,0.01,-0.008,-0.031,102.0,102.0,102.0,13.4,1505.2,349.9,-0.8,1.8,2471.407,13.29,0.012,128.7
2023-07-16T09:04:03,42.805,6.029,-0.014,-0.014,-0.046,103.0,103.0,101.0,13.3,1505.2,343.4,-0.8,1.8,2471.442,13.29,0.019,225.0
2023-07-16T09:07:03,42.805,6.029,0.011,-0.011,-0.005,103.0,102.0,101.0,13.4,1505.2,333.0,-0.8,1.8,2471.435,13.29,0.015,135.0
2023-07-16T09:10:03,42.805,6.029,-0.011,-0.021,-0.034,103.0,102.0,101.0,13.3,1505.2,342.3,-0.8,1.8,2471.415,13.29,0.023,207.6
2023-07-16T09:13:03,42.805,6.029,0.006,0.006,-0.015,104.0,102.0,102.0,13.4,1505.2,334.6,-0.7,1.8,2471.402,13.29,0.008,45.0
2023-07-16T09:16:03,42.805,6.029,0.014,0.023,-0.033,103.0,101.0,103.0,13.3,1505.2,322.9,-0.8,1.8,2471.406,13.29,0.026,31.3
2023-07-16T09:19:03,42.805,6.029,-0.004,-0.012,-0.035,104.0,101.0,102.0,13.4,1505.2,342.7,-0.7,1.8,2471.377,13.29,0.012,198.4
2023-07-16T09:22:03,42.805,6.029,0.005,0.008,-0.01,103.0,102.0,100.0,13.3,1505.2,347.8,-0.8,1.8,2471.376,13.29,0.009,32.0
2023-07-16T09:25:03,42.805,6.029,-0.006,-0.005,-0.021,101.0,102.0,104.0,13.4,1505.2,323.8,-0.8,1.8,2471.378,13.29,0.007,230.2
2023-07-16T09:28:03,42.805,6.029,0.001,-0.019,-0.047,101.0,104.0,102.0,13.4,1505.2,351.5,-0.8,1.8,2471.428,13.29,0.019,177.0
2023-07-16T09:31:03,42.805,6.029,-0.004,0.017,-0.038,103.0,102.0,101.0,13.4,1505.2,346.5,-0.8,1.8,2471.384,13.29,0.017,346.8
2023-07-16T09:34:03,42.805,6.029,-0.008,-0.012,-0.01,101.0,104.0,102.0,13.3,1505.2,325.2,-0.8,1.8,2471.357,13.29,0.014,213.7
2023-07-16T09:37:03,42.805,6.029,-0.02,0.003,-0.034,102.0,102.0,101.0,13.4,1505.2,347.1,-0.8,1.8,2471.366,13.29,0.02,278.5
2023-07-16T09:40:03,42.805,6.029,-0.012,0.001,-0.03,104.0,102.0,101.0,13.4,1505.2,323.7,-0.8,1.8,2471.35,13.29,0.012,274.8
2023-07-16T09:43:03,42.805,6.029,-0.007,-0.016,-0.037,104.0,102.0,101.0,13.4,1505.2,341.2,-0.7,1.9,2471.367,13.29,0.017,203.6
2023-07-16T09:46:03,42.805,6.029,0.011,0.006,-0.007,103.0,103.0,101.0,13.3,1505.2,343.7,-0.7,1.8,2471.38,13.29,0.012,61.4
2023-07-16T09:49:03,42.805,6.029,0.001,-0.007,-0.013,102.0,103.0,101.0,13.4,1505.2,329.7,-0.8,1.8,2471.401,13.29,0.007,171.9
2023-07-16T09:52:03,42.805,6.029,-0.008,-0.008,-0.047,103.0,103.0,101.0,13.4,1505.2,337.6,-0.8,1.8,2471.357,13.29,0.011,225.0
2023-07-16T09:55:03,42.805,6.029,-0.006,0.008,-0.005,102.0,102.0,102.0,13.4,1505.2,340.0,-0.8,1.8,2471.39,13.29,0.01,323.1
2023-07-16T09:58:03,42.805,6.029,-0.013,0.003,-0.031,103.0,102.0,102.0,13.3,1505.2,351.7,-0.8,1.8,2471.372,13.29,0.013,283.0